Simultaneous Nadir Overpasses (SNOs) Predictions

Prediction of SNOs between NOAA-19 and TERRA Satellite Orbit:

Table of predicted SNOs for the next 14.0 days since TLE Epoch: 7/29/2023
Index Date (NOAA-19) Time (NOAA-19) Lat,Lon (NOAA-19) SZA (NOAA-19 ) Date (TERRA) Time (TERRA) Lat,Lon (TERRA) SZA (TERRA ) Distance(km) Time Diff (sec)
1 07/30/2023 07:54:50 80.87, 93.75 63.65 07/30/2023 07:54:40 80.86, 93.83 63.65 1.52 10
2 08/01/2023 11:45:15 -80.87,-143.89 115.82 08/01/2023 11:44:58 -80.87,-143.73 115.82 2.75 17
3 08/03/2023 14:44:44 -80.86, 170.87 115.32 08/03/2023 14:45:53 -80.87, 171.01 115.27 2.77 69
4 08/03/2023 15:35:44 80.86, -21.51 64.74 08/03/2023 15:35:15 80.86, -21.44 64.72 1.56 29
5 08/05/2023 18:35:12 80.86, -66.65 65.28 08/05/2023 18:36:10 80.85, -66.81 65.27 3.04 58
6 08/05/2023 19:26:09 -80.87, 101.17 114.66 08/05/2023 19:25:32 -80.87, 101.07 114.69 1.71 37
7 08/07/2023 22:25:39 -80.85, 55.46 114.16 08/07/2023 22:26:27 -80.84, 55.57 114.14 1.97 48
8 08/07/2023 23:16:37 80.86,-136.62 65.93 08/07/2023 23:15:48 80.86,-136.53 65.92 1.64 49
9 08/10/2023 02:16:05 80.85, 178.14 66.50 08/10/2023 02:16:42 80.86, 178.19 66.52 1.33 37



Historial Predications of SNOs between NOAA-19 and TERRA
